Rome Ciampino, Italy

7:52 PM CEST on July 24, 2016 (GMT +0200)
Ciampino

Weather History for LIRA - December, 2012

Change the Weather History Date:

Saturday, December 1, 2012

  Actual Average Record
Temperature  
Mean Temperature 48 °F -  
Max Temperature 53 °F 55 °F 68 °F (2014)
Min Temperature 44 °F 39 °F 37 °F (2007)
Degree Days  
Heating Degree Days 16    
Moisture  
Dew Point 44 °F    
Average Humidity 85    
Maximum Humidity 100    
Minimum Humidity 71    
Precipitation  
Precipitation 0.00 in 0.15 in - ()
Sea Level Pressure  
Sea Level Pressure 29.73 in    
Wind  
Wind Speed 7 mph ()    
Max Wind Speed 15 mph    
Max Gust Speed 24 mph    
Visibility 5.9 miles    
Events Rain , Thunderstorm    
Averages and records for this station are not official NWS values.
T = Trace of Precipitation, MM = Missing Value Source: Averaged Metar Reports

Daily Weather History Graph

Daily Weather History Graph

Search for Another Location

Airport or City:

Trip Planner

Search our weather history database for the weather conditions in past years. The results will help you decide how hot, cold, wet, or windy it might be!

Date:

Astronomy

Dec. 01, 2012 Rise Set
Actual Time 7:17 AM CET 4:39 PM CET
Civil Twilight 6:46 AM CET 5:10 PM CET
Nautical Twilight 6:12 AM CET 5:45 PM CET
Astronomical Twilight 5:38 AM CET 6:18 PM CET
Moon 7:14 PM CET (12/1) 9:19 AM CET (12/1)
Length of Visible Light 10h 23m
Length of Day
9h 21m
Waning Gibbous, 93% of the Moon is Illuminated
Dec 1
Waning Gibbous
Dec 6
Last Quarter
Dec 13
New
Dec 20
First Quarter
Dec 28
Full

Hourly Weather History & Observations

Time (CET) Temp. Windchill Dew Point Humidity Pressure Visibility Wind Dir Wind Speed Gust Speed Precip Events Conditions
12:15 AM 48.2 °F - 41.0 °F 76% 29.65 in 6.2 mi SE 6.9 mph - N/A   Scattered Clouds
12:45 AM 50.0 °F - 41.0 °F 71% 29.65 in 6.2 mi SE 12.7 mph - N/A Thunderstorm Thunderstorm
1:15 AM 48.2 °F - 39.2 °F 71% 29.65 in 6.2 mi SE 8.1 mph - N/A Thunderstorm Thunderstorm
1:45 AM 48.2 °F - 41.0 °F 76% 29.65 in 6.2 mi SE 9.2 mph - N/A Thunderstorm Thunderstorm
2:15 AM 48.2 °F - 39.2 °F 71% 29.68 in 6.2 mi NW 11.5 mph 24.2 mph N/A Thunderstorm Thunderstorm
2:45 AM 46.4 °F 42.9 °F 42.8 °F 87% 29.71 in 6.2 mi North 6.9 mph - N/A Rain , Thunderstorm Light Thunderstorms and Rain
3:15 AM 46.4 °F 41.1 °F 42.8 °F 87% 29.71 in 4.3 mi ENE 11.5 mph - N/A Rain , Thunderstorm Light Thunderstorms and Rain
3:45 AM 46.4 °F 41.9 °F 42.8 °F 87% 29.71 in 5.0 mi NE 9.2 mph - N/A Rain Light Rain
4:15 AM 44.6 °F 40.2 °F 44.6 °F 100% 29.71 in 5.0 mi ENE 8.1 mph - N/A Rain Light Rain
4:45 AM 46.4 °F 41.9 °F 44.6 °F 93% 29.71 in 5.0 mi ENE 9.2 mph - N/A Rain Light Rain
5:15 AM 46.4 °F 41.9 °F 44.6 °F 93% 29.71 in 5.6 mi ENE 9.2 mph - N/A Rain Light Rain
5:45 AM 44.6 °F 41.4 °F 44.6 °F 100% 29.68 in 5.6 mi ENE 5.8 mph - N/A Rain Light Rain
6:15 AM 44.6 °F 42.2 °F 44.6 °F 100% 29.68 in 6.2 mi ENE 4.6 mph - N/A Rain Light Rain
6:45 AM 46.4 °F 43.5 °F 44.6 °F 93% 29.68 in 6.2 mi ENE 5.8 mph - N/A Rain Light Rain
7:15 AM 46.4 °F 44.3 °F 44.6 °F 93% 29.68 in 6.2 mi ENE 4.6 mph - N/A   Scattered Clouds
7:45 AM 46.4 °F 41.9 °F 42.8 °F 87% 29.68 in 6.2 mi East 9.2 mph - N/A   Scattered Clouds
8:15 AM 48.2 °F - 42.8 °F 82% 29.68 in 6.2 mi East 9.2 mph - N/A   Scattered Clouds
8:45 AM 48.2 °F - 42.8 °F 82% 29.71 in 6.2 mi ENE 5.8 mph - N/A   Scattered Clouds
9:15 AM 50.0 °F - 42.8 °F 76% 29.71 in 6.2 mi ENE 2.3 mph - N/A   Scattered Clouds
9:45 AM 50.0 °F - 42.8 °F 76% 29.71 in 6.2 mi NW 2.3 mph - N/A   Scattered Clouds
10:15 AM 50.0 °F - 44.6 °F 82% 29.74 in 6.2 mi ENE 2.3 mph - N/A   Scattered Clouds
10:45 AM 51.8 °F - 44.6 °F 76% 29.74 in 6.2 mi East 2.3 mph - N/A Rain Light Rain
11:15 AM 46.4 °F 41.9 °F 44.6 °F 93% 29.74 in 2.5 mi WNW 9.2 mph - N/A Rain Rain
11:45 AM 46.4 °F 42.4 °F 44.6 °F 93% 29.77 in 2.5 mi NE 8.1 mph - N/A Rain Rain
12:15 PM 46.4 °F 42.9 °F 44.6 °F 93% 29.74 in 5.0 mi East 6.9 mph - N/A Rain Light Rain
12:45 PM 48.2 °F - 46.4 °F 93% 29.74 in 5.0 mi ESE 15.0 mph - N/A Rain Light Rain
1:15 PM 50.0 °F - 46.4 °F 87% 29.74 in 6.2 mi ESE 12.7 mph - N/A Rain Light Rain
1:45 PM 51.8 °F - 44.6 °F 76% 29.74 in 6.2 mi ESE 9.2 mph - N/A   Scattered Clouds
2:15 PM 51.8 °F - 42.8 °F 71% 29.74 in 6.2 mi East 6.9 mph - N/A   Scattered Clouds
2:45 PM 51.8 °F - 44.6 °F 76% 29.74 in 6.2 mi NW 3.5 mph - N/A   Scattered Clouds
3:15 PM 53.6 °F - 44.6 °F 72% 29.74 in 6.2 mi East 1.2 mph - N/A   Scattered Clouds
3:45 PM 53.6 °F - 44.6 °F 72% 29.74 in 6.2 mi East 4.6 mph - N/A   Scattered Clouds
4:15 PM 51.8 °F - 44.6 °F 76% 29.74 in 6.2 mi ESE 9.2 mph - N/A   Scattered Clouds
4:45 PM 50.0 °F - 44.6 °F 82% 29.74 in 6.2 mi ESE 8.1 mph - N/A   Scattered Clouds
5:15 PM 48.2 °F - 44.6 °F 87% 29.77 in 6.2 mi ESE 8.1 mph - N/A   Scattered Clouds
5:45 PM 48.2 °F - 44.6 °F 87% 29.77 in 6.2 mi ESE 9.2 mph - N/A   Scattered Clouds
6:15 PM 50.0 °F - 44.6 °F 82% 29.77 in 6.2 mi ESE 10.4 mph - N/A   Scattered Clouds
6:45 PM 48.2 °F - 44.6 °F 87% 29.77 in 6.2 mi East 4.6 mph - N/A   Scattered Clouds
7:15 PM 48.2 °F - 44.6 °F 87% 29.77 in 6.2 mi ESE 3.5 mph - N/A   Scattered Clouds
7:45 PM 48.2 °F - 42.8 °F 82% 29.77 in 6.2 mi NNE 2.3 mph - N/A   Scattered Clouds
8:15 PM 48.2 °F - 44.6 °F 87% 29.77 in 6.2 mi Calm Calm - N/A Rain Light Rain
8:45 PM 51.8 °F - 46.4 °F 82% 29.77 in 6.2 mi SE 3.5 mph - N/A Rain Light Rain
9:15 PM 50.0 °F - 46.4 °F 87% 29.77 in 6.2 mi ENE 3.5 mph - N/A Rain Light Rain
9:45 PM 48.2 °F - 44.6 °F 87% 29.77 in 6.2 mi Calm Calm - N/A   Partly Cloudy
10:15 PM 48.2 °F - 44.6 °F 87% 29.77 in 6.2 mi WNW 2.3 mph - N/A   Partly Cloudy
10:45 PM 48.2 °F - 46.4 °F 93% 29.77 in 6.2 mi NW 5.8 mph - N/A   Scattered Clouds
11:15 PM 48.2 °F - 46.4 °F 93% 29.77 in 6.2 mi NNW 2.3 mph - N/A Rain , Thunderstorm Light Thunderstorms and Rain
11:45 PM 48.2 °F - 46.4 °F 93% 29.77 in 6.2 mi NNW 5.8 mph - N/A Rain , Thunderstorm Light Thunderstorms and Rain